CZ-6A DEB, 60717

Orbit data source: Space-Track

CZ-6A DEB, 60717 is space debris in LEO originally from a launch on Tue, 06 Aug 2024 UTC launched from the Taiyaun Space Center, China (TSC). Debris objects in space refer to the collection of defunct objects orbiting the Earth. Examples of debris include non-operational satellites, rocket bodies, and fragments generated from explosions, collisions, or faulty payload assembly.

Loading next visibility...
Identifier
60717, 2024-140DW
Orbit
LEO
Country
Flag of CNCN / PRC
Related business
Manufacturer
SAST
Mission
Spacecraft
Bus & Motor
Unknown
Mass
Unknown
Launch date (UTC)
2024-08-06 (2 years ago)
Launch vehicle
Unknown
Launch site
Taiyaun Space Center, China (TSC)
Object type
Payload
Rocket body
Debris
Shape & HBR
Unknown shape, 0.2 m
Radar Cross Section
Medium (>0.1 m² and <1 m²)

Expand to show TLE details & history
Last TLE update: 17 hours ago

TLE from 17 hours ago
0 CZ-6A DEB
1 60717U 24140DW  26171.24548469  .00027402  00000-0  30825-2 0  9996
2 60717  88.9125 261.5124 0147175 130.6770 230.7354 14.78950763 99075
Epoch: 2026-06-20T05:53Z
TLE epoch observation values (Epoch: 2026-06-20T05:53:29.877Z)
Latitude
0.00005°
Longitude
-95.32496°
Altitude
701.993 km
Speed
7.469 km/s
True Right ascension
17h 26m 02s
True Declination
0° 00' 00"
Sunlit
Object was in full shadow at epoch
Visualization orbit readout
Latitude
Unknown
Longitude
Unknown
Altitude
Unknown
Speed
Unknown
Apparent Right ascension
Unknown
Apparent Declination
Unknown
Sunlit
N/A
Visualization observer readout
Local Sidereal Time
10:18:29
Azimuth
Unknown
Elevation
Unknown
Doppler factor
Unknown
Orbital elements
Apogee altitude
732.64 km
Perigee altitude
526.37 km
Semi-major axis
7,007.642 km
Eccentricity
0.01472
Inclination
88.9125°
RAAN
261.5124°
Arg. of periapsis
130.677°
True anomaly
229.4448°
Mean anomaly
230.7354°
Eccentric anomaly
230.0886°
Mean motion
3.69986 °/min
Orbital period
97.3 mins
BSTAR
0.0030825
Loading maneuver chart data...
Computing Atmospheric mass density...
Loading historical data...
Loading historical data...
Loading historical data...
Loading historical data...
Loading historical data...
Loading historical data...
Loading historical data...

Documentation

Showing up to 5 results
|